Terminal Aerodrome Forecast
Issued by NWS

Home | Current Version | Previous Version | Text Only | Print | Product List | Glossary On
Versions: 1 2 3 4 5 6 7 8 9 10 11 12 13 14 15 16 17 18 19 20 21 22 23 24
000
FTUS46 KSEW 181700
TAFSEA
TAF
KSEA 181725Z 1818/1924 19007KT P6SM VCSH BKN030 BKN050 OVC100
      TEMPO 1818/1820 SCT010 BKN025
     FM190700 19005KT P6SM BKN015 OVC035
     FM191200 18005KT P6SM OVC015=

USA.gov is the U.S. government's official web portal to all federal, state and local government web resources and services.